Location: Central Falls
(41.8900°N, 71.3929°W)
Time: 11:16:52
(UTC+00:00)

A-11 Canister half - Pass Details

Date: 08 December 2023
Orbit: 1526 x 1682 km, 47.3° (Epoch: 20 February)

Event Time Altitude Azimuth Distance (km) Brightness Sun altitude
Rises 05:32:57 0° 297° (WNW) 4,911 - -67.5°
Reaches altitude 10° 05:36:13 10° 293° (WNW) 3,906 - -67.2°
Maximum altitude 05:45:46 53° 221° (SW) 1,918 - -66.1°
Drops below altitude 10° 05:55:00 10° 147° (SSE) 3,777 - -64.9°
Sets 05:58:07 0° 143° (SE) 4,739 - -64.4°
